Location: ??? ????
(38.0580°N, 23.1536°E)
Time: 23:06:53
(UTC+00:00)

Cosmos 2227 Rocket - Pass Details

Date: 13 December 2025
Orbit: 838 x 843 km, 71.0° (Epoch: 14 January)

Event Time Altitude Azimuth Distance (km) Brightness Sun altitude
Rises 16:25:54 0° 333° (NNW) 3,399 5.5 -14.8°
Reaches altitude 10° 16:28:23 10° 330° (NNW) 2,461 4.8 -15.3°
Maximum altitude 16:33:56 61° 252° (WSW) 950 2.8 -16.3°
Drops below altitude 10° 16:39:27 10° 173° (S) 2,450 4.7 -17.4°
Sets 16:41:55 0° 170° (S) 3,381 5.4 -17.8°
